This is the latest recevied weather packets stored in our database for station/object I3LPO-3. If no packets are shown the sender has not sent any weather packets the latest 1 day(s).
| Time | Temp. | Humidity | Pressure | Rain* | Wind** | Luminosity | Snow |
|---|---|---|---|---|---|---|---|
| 1778082384 | 14.44° C | 41% | 1011.2 hPa | - | - | - | - |
| 1778079982 | 14.44° C | 40% | 1011 hPa | - | - | - | - |
| 1778077579 | 14.44° C | 40% | 1011.1 hPa | - | - | - | - |
| 1778076378 | 14.44° C | 40% | 1011.4 hPa | - | - | - | - |
| 1778075177 | 14.44° C | 40% | 1011.7 hPa | - | - | - | - |
| 1778071573 | 12.22° C | 40% | 1012.2 hPa | - | - | - | - |
| 1778070372 | 12.22° C | 40% | 1012.4 hPa | - | - | - | - |
| 1778067997 | 12.22° C | 40% | 1012.2 hPa | - | - | - | - |
| 1778066796 | 12.22° C | 40% | 1012.5 hPa | - | - | - | - |
| 1778063192 | 12.78° C | 40% | 1012.9 hPa | - | - | - | - |
| 1778061991 | 12.22° C | 40% | 1012.9 hPa | - | - | - | - |
| 1778059588 | 12.22° C | 40% | 1012.9 hPa | - | - | - | - |
| 1778058387 | 12.78° C | 39% | 1012.9 hPa | - | - | - | - |
| 1778055984 | 11.67° C | 39% | 1012.8 hPa | - | - | - | - |
| 1778054783 | 11.67° C | 39% | 1012.7 hPa | - | - | - | - |
| 1778053582 | 11.11° C | 39% | 1012.7 hPa | - | - | - | - |
| 1778051179 | 10.56° C | 39% | 1013.1 hPa | - | - | - | - |
| 1778049978 | 10.56° C | 39% | 1013.2 hPa | - | - | - | - |
| 1778048777 | 10° C | 39% | 1013.3 hPa | - | - | - | - |
| 1778046374 | 10° C | 39% | 1013.6 hPa | - | - | - | - |
| 1778045173 | 10.56° C | 39% | 1013.6 hPa | - | - | - | - |
| 1778043972 | 10° C | 39% | 1013.4 hPa | - | - | - | - |
| 1778041569 | 10° C | 39% | 1013 hPa | - | - | - | - |
| 1778040367 | 10° C | 39% | 1012.8 hPa | - | - | - | - |
| 1778035561 | 10° C | 39% | 1013.6 hPa | - | - | - | - |
* Rain since midnight (hover to see other rain measurements)
** Current wind speed in m/s (hover to see current wind gust speed)